Flag for Canada Weather past 2 weeks in Kitchener, Ontario, Canada

Now
23 °F

Clear.


Feels Like: 18 °F
Forecast: 24 / 41 °F
Wind: 3 mph from Southwest

Location: Waterloo Well

Current Time: Mar 31, 2015 at 3:27:36 AM

Latest Report: Mar 31, 2015 at 3:00 AM


Visibility: 9 mi

Pressure: 29.90 "Hg

Humidity: 93%

Dew point: 21 °F

Location of KitchenerLocation

Historic Weather in Kitchener — Graph

°F

Kitchener temperature yesterday

Maximum temperature yesterday: 39 °F (at 12:00 PM)
Minimum temperature yesterday: 28 °F (at 11:00 PM)
Average temperature yesterday: 36 °F

Past Weeks' High & Low Weather Summary

 TemperatureHumidityPressure
High77 °F (Mar 24, 1:00 PM)100% (Mar 16, 8:00 AM)30.40 "Hg (Mar 16, 8:00 AM)
Low10 °F (Mar 28, 5:00 AM)5% (Mar 24, 1:00 PM)29.59 "Hg (Mar 30, 3:45 AM)
Average31 °F70%30.01 "Hg
* Reported Mar 16 2:00 AM — Mar 31 2:00 AM, Kitchener, Weather by CustomWeather, © 2015

Note: Actual official high and low records may vary slightly from our data, if they occured in-between our weather recording intervals... More about our weather records

Advertising

Kitchener weather history for previous 24 hours

 ConditionsComfort  
Time TempWeatherWind HumidityBarometerVisibility
2:00 AM
Tue, Mar 31
25 °FClear.3 mph93%29.93 "Hg9 mi
1:00 AM25 °FClear.6 mph93%29.94 "Hg9 mi
12:00 AM27 °FClear.6 mph86%29.95 "Hg9 mi
11:00 PM
Mon, Mar 30
28 °FClear.8 mph86%29.95 "Hg9 mi
10:00 PM30 °FClear.8 mph75%29.94 "Hg9 mi
9:00 PM32 °FClear.7 mph69%29.91 "Hg9 mi
8:00 PM34 °FSunny.12 mph60%29.89 "Hg9 mi
7:00 PM36 °FSunny.12 mph60%29.88 "Hg9 mi
6:00 PM37 °FSunny.22 mph56%29.85 "Hg9 mi
5:00 PM37 °FScattered clouds.25 mph60%29.83 "Hg9 mi
4:57 PM37 °FScattered clouds.26 mph60%29.83 "Hg9 mi
4:03 PM39 °FMostly cloudy.21 mph75%29.82 "Hg9 mi
3:03 PM39 °FLight rain. Broken clouds.18 mph87%29.81 "Hg9 mi
3:01 PM39 °FLight rain. Broken clouds.18 mph81%29.81 "Hg9 mi
2:00 PM36 °FLight snow. Low clouds.16 mph93%29.83 "Hg3 mi
1:58 PM36 °FLight snow. Low clouds.15 mph87%29.83 "Hg3 mi
1:00 PM39 °FLight rain. Cloudy.20 mph75%29.80 "Hg9 mi
12:55 PM39 °FLight rain. Cloudy.16 mph81%29.80 "Hg9 mi
12:00 PM39 °FMostly cloudy.20 mph65%29.79 "Hg9 mi
11:04 AM37 °FMostly cloudy.20 mph75%29.78 "Hg9 mi
11:00 AM37 °FMostly cloudy.17 mph75%29.78 "Hg9 mi
10:00 AM36 °FLight rain. More clouds than sun.18 mph81%29.77 "Hg9 mi
9:57 AM36 °FLight rain. More clouds than sun.17 mph81%29.77 "Hg9 mi
9:04 AM34 °FLight rain. Cloudy.17 mph93%29.74 "Hg7 mi
8:57 AM34 °FLight rain. Fog.21 mph87%29.73 "Hg3 mi
8:02 AM36 °FOvercast.24 mph81%29.71 "Hg9 mi
7:00 AM36 °FOvercast.24 mph81%29.67 "Hg9 mi
6:02 AM36 °FLight rain. Mostly cloudy.21 mph81%29.65 "Hg9 mi
5:00 AM36 °FOvercast.25 mph87%29.61 "Hg9 mi
4:00 AM36 °FLight rain. Overcast.18 mph93%29.60 "Hg9 mi
3:45 AM36 °FLight rain. Overcast.21 mph93%29.59 "Hg9 mi
3:00 AM36 °FLight rain. Fog.20 mph93%29.60 "Hg4 mi
Weather by CustomWeather, © 2015

See weather overviewHow to use our weather pages